This is the latest recevied weather packets stored in our database for station/object G4WLC-1. If no packets are shown the sender has not sent any weather packets the latest 10 day(s).
| Time | Temp. | Humidity | Pressure | Rain* | Wind** | Luminosity | Snow |
|---|---|---|---|---|---|---|---|
| 1777561998 | 23.89° C | 32% | 1018.7 hPa | 0 mm | - | - | - |
| 1777561698 | 24.44° C | 31% | 1018.7 hPa | 0 mm | - | - | - |
| 1777561398 | 24.44° C | 31% | 1018.7 hPa | 0 mm | - | - | - |
| 1777561098 | 24.44° C | 32% | 1019 hPa | 0 mm | - | - | - |
| 1777560798 | 24.44° C | 31% | 1018.8 hPa | 0 mm | - | - | - |
| 1777560498 | 24.44° C | 31% | 1019 hPa | 0 mm | - | - | - |
| 1777560198 | 24.44° C | 36% | 1019.1 hPa | 0 mm | - | - | - |
| 1777559898 | 24.44° C | 37% | 1019.1 hPa | 0 mm | - | - | - |
| 1777559598 | 24.44° C | 36% | 1019.3 hPa | 0 mm | - | - | - |
| 1777559298 | 24.44° C | 38% | 1019.2 hPa | 0 mm | - | - | - |
| 1777558998 | 24.44° C | 36% | 1019.2 hPa | 0 mm | - | - | - |
| 1777558698 | 24.44° C | 37% | 1019.3 hPa | 0 mm | - | - | - |
| 1777558398 | 23.89° C | 38% | 1019.4 hPa | 0 mm | - | - | - |
| 1777558098 | 23.89° C | 34% | 1019.4 hPa | 0 mm | - | - | - |
| 1777557798 | 23.89° C | 40% | 1019.5 hPa | 0 mm | - | - | - |
| 1777557498 | 23.89° C | 39% | 1019.6 hPa | 0 mm | - | - | - |
| 1777557198 | 23.89° C | 40% | 1019.5 hPa | 0 mm | - | - | - |
| 1777556898 | 23.33° C | 40% | 1019.6 hPa | 0 mm | - | - | - |
| 1777556598 | 23.33° C | 40% | 1019.6 hPa | 0 mm | - | - | - |
| 1777556298 | 23.89° C | 39% | 1019.6 hPa | 0 mm | - | - | - |
| 1777555998 | 23.33° C | 38% | 1019.7 hPa | 0 mm | - | - | - |
| 1777555698 | 23.33° C | 37% | 1019.6 hPa | 0 mm | - | - | - |
| 1777555398 | 23.33° C | 38% | 1019.7 hPa | 0 mm | - | - | - |
| 1777555242 | 22.78° C | 39% | 1019.8 hPa | 0 mm | - | - | - |
| 1777555098 | 22.78° C | 39% | 1019.8 hPa | 0 mm | - | - | - |
* Rain latest hour (hover to see other rain measurements)
** Current wind speed in m/s (hover to see current wind gust speed)